DECAYED
Showing default

DRUMS TARGET-1, 55685 (Decayed)

Orbit data source: Space-Track

DRUMS TARGET-1, 55685 was a payload satellite owned by Kawasaki (JP) in LEO that was launched on Tue, 09 Nov 2021 UTC via an EPSILON launch vehicle from the Kagoshima Space Center University Of Tokyo (KSCUT). Payload-class satellites include a variety of spacecraft equipped with specific instruments for various scientific and technological missions. These include communications satellites like Starlink; space stations such as the ISS; scientific satellites like the Hubble; Earth observation satellites from companies like Planet Labs, Umbra, and HawkEye 360; GPS; miniature CubeSats for education and research; and military/defense satellites.

Not visible in the next 10 days
Identifier
55685, 2021-102M
Orbit
Decayed
Last TLE update
6 months ago
Origin
Manufacturer
Kawasaki
Mission
Decayed Commercial Technology
Bus & Motor
DRUMS TARGET, Unknown motor
Mass
1 kg wet, 1 kg dry
Launch date (UTC)
2021-11-09 (4 years ago)
Launch vehicle
EPSILON
Launch site
Kagoshima Space Center University Of Tokyo (KSCUT)
Object type
Payload
Rocket body
Debris
Shape & HBR
Cyl, 0.3 m
Radar Cross Section
0.027 m², Small (<0.1 m²)

Expand to show TLE details & history

TLE from 6 months ago
0 DRUMS TARGET-1
1 55685U 21102M   24304.86572768  .05104678  24028-5  30596-2 0  9994
2 55685  97.3756   2.0288 0006827 278.9219  81.1295 16.18386150 94434
Epoch: 2024-10-30T20:46Z
Definitive object data (Epoch: 2024-10-30T20:46:38.871Z)
Latitude
-0.00013°
Longitude
10.70977°
Altitude
226.468 km
Speed
7.771 km/s
True Right ascension
00h 08m 06s
True Declination
0° 00' 00"
Sunlit
Object was in full shadow at TLE epoch
Visualization observer readout
Visualization observer readout
Orbital elements
Apogee altitude
225.277 km
Perigee altitude
216.267 km
Semi-major axis
6,598.909 km
Eccentricity
0.0006827
Inclination
97.3756°
RAAN
2.0288°
Arg. of periapsis
278.9219°
True anomaly
81.20681°
Mean anomaly
81.1295°
Eccentric anomaly
81.16815°
Mean motion
4.04888 °/min
BSTAR
0.0030596
Orbital period
88.91 mins
Loading maneuver chart data...
Loading SW <> Apogee altitude chart data...
Loading historical data...
Loading historical data...
Loading historical data...
Loading historical data...
Loading historical data...
Loading historical data...
Loading historical data...

DRUMS TARGET-1 Visibility forecast

Observer location: undefined°, undefined°

This satellite is decayed
Span
Click to sort rows by Start time (UTC) header in descending order
Start Az.
Max El. time (UTC)
Max El. Az.
Max El.
End time (UTC)
End Az.
|